Dewpoint
66 66 65 64 65 65 66 67 67 67 65 65 66 64 63 63 62 61 60 60 60 60 60 60 61 61 61 61 61 61 61 60 61 61 61 62 63 64 66 67 67 67 66 65 64 64 64 63 63 62 61 60 60 60 59 60 59 59 61 60 61 64 64 65 64 64 64 63 64 63 61 61 61 60 59 59 59 58 57 57 57 57 56 56 55
65 65 65 64 64 65 65 67 66 67 65 65 64 64 63 62 61 61 60 59 59 59 61 60 60 61 61 61 61 61 61 60 60 61 61 62 63 64 65 67 67 67 67 66 65 64 64 64 63 62 62 61 61 60 59 59 60 59 60 61 62 64 64 65 65 64 63 63 63 61 61 61 60 60 60 58 58 57 57 57 56 56 56 55 55
65 65 65 65 64 64 65 66 67 66 65 64 64 64 63 62 62 61 60 59 59 59 60 59 59 60 62 61 61 61 61 61 61 60 61 62 62 63 63 66 67 67 67 66 66 65 64 64 64 63 62 62 61 61 60 59 60 60 60 61 62 63 63 64 65 64 63 63 63 63 62 60 59 59 59 59 58 58 57 57 56 56 55 55 54
66 66 65 65 64 65 65 64 66 67 66 65 64 64 63 63 62 62 61 60 60 59 60 59 59 59 60 61 61 61 61 61 61 61 60 61 62 63 63 64 66 67 66 66 66 66 65 64 64 63 62 62 62 61 60 60 59 60 60 62 62 63 63 63 65 64 63 62 63 62 61 60 60 59 59 58 57 57 57 56 56 55 55 55 55
65 65 66 64 64 64 64 64 65 66 66 65 65 64 64 63 62 63 62 61 62 62 61 60 59 60 60 60 61 61 61 61 61 61 61 61 62 62 63 63 64 66 66 66 66 66 66 66 64 63 63 62 62 62 61 60 58 59 60 61 62 63 62 63 65 64 63 63 63 62 62 60 59 60 59 58 57 57 56 55 55 55 55 54 54
65 64 65 65 64 64 64 64 64 64 64 65 65 65 64 64 64 63 64 63 63 62 62 61 60 60 60 60 61 62 61 60 61 61 61 61 61 62 62 63 63 64 65 66 66 66 66 66 65 64 63 63 63 62 61 62 60 59 59 60 61 62 62 63 64 64 63 63 63 62 61 61 60 59 59 58 57 57 56 56 55 54 54 54 53
65 65 65 65 65 65 63 64 64 64 64 64 64 65 65 64 64 64 64 64 64 63 62 61 61 60 60 61 61 61 61 60 60 60 60 61 61 62 62 63 63 63 64 64 66 66 65 66 66 66 65 64 63 62 62 61 61 60 60 60 60 61 62 63 64 65 64 63 63 62 62 61 60 59 59 58 57 57 56 56 55 55 54 53 53
66 66 65 65 65 65 65 65 64 65 64 64 64 64 64 64 64 64 63 63 63 63 63 62 62 61 61 61 61 61 61 60 60 60 60 61 60 62 62 62 62 62 64 63 64 64 65 65 66 66 66 65 64 63 63 62 61 61 60 59 60 62 60 62 64 65 64 64 63 62 62 61 60 59 59 58 57 57 56 56 55 55 54 54 53
66 66 65 65 64 63 63 63 65 64 65 65 64 64 63 64 63 64 64 63 64 63 63 62 61 60 60 60 61 61 61 61 60 60 60 60 61 61 61 62 62 64 63 63 63 63 64 65 65 65 65 66 66 64 64 63 62 61 60 59 59 62 61 61 63 65 65 64 63 62 61 61 60 59 59 58 57 57 56 56 55 55 54 54 53
64 64 64 65 64 63 63 64 64 64 63 65 65 64 64 64 63 64 64 64 64 64 64 63 61 60 60 59 60 61 61 61 61 61 60 60 61 61 61 62 62 62 62 63 62 62 62 63 65 65 66 64 64 66 64 64 63 62 61 59 60 62 62 60 60 64 65 65 63 62 61 60 60 59 59 58 58 57 56 56 55 55 54 54 53
62 63 63 64 64 63 63 64 64 64 64 64 64 64 64 63 63 63 64 65 65 65 64 63 61 60 60 60 59 60 61 61 61 61 60 60 60 61 60 61 61 61 62 62 62 62 62 62 63 64 65 65 65 65 65 64 63 63 62 61 60 62 64 61 60 61 64 65 63 62 62 61 60 59 59 58 58 57 56 56 55 55 54 54 53
58 60 61 61 61 62 63 62 61 62 62 62 63 63 62 63 63 64 63 64 65 65 64 62 62 61 60 61 60 59 59 60 61 60 60 60 60 61 61 61 61 61 61 61 61 61 62 62 62 62 64 64 65 65 65 65 65 64 63 62 61 59 62 62 61 60 62 65 64 63 62 61 60 60 59 58 58 57 57 56 55 55 54 54 53
58 57 57 60 58 59 60 61 60 62 63 63 63 63 64 64 64 63 62 61 62 65 65 63 61 59 60 60 59 60 59 60 60 60 60 60 60 60 61 62 61 61 61 61 61 61 61 61 61 62 63 64 65 65 64 64 64 65 64 63 63 60 60 60 60 60 60 64 65 63 63 62 61 60 59 59 58 58 57 56 55 55 54 54 54
58 57 56 56 56 57 57 59 61 62 63 63 63 64 63 64 63 62 63 61 61 63 63 62 59 57 57 57 58 59 60 59 58 59 59 59 60 60 61 61 61 61 62 61 61 60 60 61 61 61 61 63 64 64 65 64 64 64 65 64 64 63 61 60 61 61 60 62 65 63 63 62 61 60 60 59 59 58 57 56 55 55 55 54 54
56 58 56 55 55 55 56 56 58 60 60 60 61 61 62 62 63 62 61 62 61 63 62 62 59 59 59 57 56 55 57 58 58 58 58 59 59 59 59 60 60 61 62 61 61 61 60 60 61 61 62 62 63 63 64 64 64 63 64 65 64 64 64 61 60 62 62 61 65 65 63 62 61 61 60 60 59 58 57 56 56 55 55 54 54
54 55 54 54 54 55 55 56 56 57 58 58 58 59 60 62 62 63 63 61 61 61 63 62 61 59 55 56 55 55 54 56 57 58 58 57 58 58 59 59 59 60 62 61 61 61 61 60 60 61 62 62 62 62 63 64 64 64 63 63 64 65 64 64 63 61 61 62 63 65 64 63 62 61 60 60 59 58 58 56 56 55 55 54 54
53 55 56 53 54 54 55 55 55 55 56 55 56 56 58 59 61 62 62 61 60 62 62 63 62 62 59 56 54 54 54 55 55 56 57 56 56 57 58 59 59 59 60 61 62 62 61 60 61 61 61 62 62 62 62 63 63 64 64 63 64 64 65 65 64 63 62 61 61 66 64 63 62 61 60 60 59 59 58 57 56 56 55 55 54
53 54 56 55 54 54 54 55 55 55 55 55 55 55 56 56 58 60 62 63 62 60 61 62 62 62 62 61 58 55 56 57 56 54 57 58 57 56 56 57 59 59 59 59 60 61 62 62 62 61 61 61 61 61 62 62 63 63 64 63 62 63 63 64 65 65 64 62 61 63 65 64 63 61 60 60 59 59 58 57 57 56 56 55 55
53 53 54 54 53 53 54 54 54 55 56 54 54 54 55 55 56 56 58 60 61 59 59 60 62 62 62 61 61 60 61 58 55 55 54 56 58 59 59 57 57 57 57 58 59 60 61 62 62 61 61 61 61 61 62 61 62 62 63 62 61 60 60 60 63 65 65 64 63 63 65 64 63 62 61 60 59 59 58 58 57 56 56 56 55
52 53 54 54 52 52 53 53 53 54 54 53 53 53 54 54 55 55 56 57 59 59 58 59 58 58 61 60 60 60 61 61 60 58 56 55 55 58 59 59 60 59 59 58 59 59 60 60 60 61 61 61 61 61 61 61 61 62 62 61 60 59 59 58 58 58 63 65 64 64 63 65 65 63 62 60 60 59 59 58 57 56 57 56 55
52 53 53 53 54 52 52 52 52 53 54 52 52 52 52 52 53 53 54 55 56 57 57 56 57 57 58 58 60 60 60 60 60 59 57 55 55 56 56 58 59 59 60 60 59 60 60 60 59 59 61 62 61 61 61 61 62 62 61 60 59 59 58 58 56 55 55 61 64 65 64 64 65 64 62 61 60 59 59 58 57 57 57 56 55
51 51 51 51 51 52 51 51 52 53 53 51 51 51 51 51 52 52 53 53 54 55 54 55 55 56 56 57 56 57 58 58 59 59 59 58 56 57 57 56 56 58 59 60 60 60 59 59 60 59 59 61 61 61 61 61 62 61 61 59 59 58 58 57 54 55 55 56 62 64 65 64 66 65 63 62 61 60 59 58 58 57 58 57 55
51 51 51 51 52 53 51 51 52 54 52 50 50 50 51 51 51 51 51 51 52 52 52 53 54 53 54 55 54 55 55 55 56 57 57 56 56 56 56 56 56 57 59 60 60 59 59 60 59 59 59 60 60 61 61 62 61 60 60 59 59 58 58 57 54 53 54 58 59 62 64 64 64 64 64 63 62 61 60 60 59 58 58 57 56
49 50 50 50 51 51 52 50 51 49 50 50 50 50 50 50 50 50 50 50 51 52 51 51 51 52 52 53 54 55 55 54 55 57 56 56 56 55 56 57 57 57 57 59 59 59 59 58 59 59 59 58 59 60 61 61 61 60 60 59 58 57 57 56 54 54 53 55 58 60 63 64 64 64 65 64 63 62 61 60 60 59 58 58 57
49 49 49 49 50 48 48 49 50 50 50 49 49 49 49 49 49 49 49 49 49 49 49 50 50 50 51 52 52 53 52 54 55 54 55 56 57 55 55 58 56 56 57 59 59 59 59 59 59 58 58 58 59 60 61 62 61 60 59 60 58 57 57 56 55 54 53 52 54 57 61 63 64 64 64 64 63 62 61 60 58 56 56 56 56
50 49 50 50 50 50 49 49 50 50 49 49 49 49 49 48 48 48 48 48 49 49 49 49 49 50 51 51 51 51 52 52 53 53 53 53 53 53 53 55 56 55 56 58 59 57 60 60 59 59 59 58 58 59 60 59 61 59 58 59 59 57 56 56 55 54 52 52 51 54 56 59 62 64 63 63 62 61 59 56 54 54 53 53 53
50 50 51 49 49 48 49 49 48 48 48 48 48 47 48 47 48 48 49 48 47 49 48 47 48 48 48 49 49 50 51 51 52 51 51 51 51 52 52 51 53 54 53 56 57 58 55 59 58 58 59 61 60 60 59 59 58 58 58 60 60 57 55 56 55 55 53 52 51 51 52 54 56 58 59 58 58 56 56 56 55 53 52 52 52
49 50 50 49 48 49 50 48 48 48 48 47 47 47 47 46 46 46 47 50 46 46 47 47 47 47 47 47 47 47 49 48 49 49 50 51 52 52 52 52 50 49 52 52 55 54 58 55 61 61 61 60 61 61 59 57 58 56 57 59 60 59 55 54 55 55 54 53 51 51 50 51 52 54 55 56 57 57 57 56 55 53 51 52 52
49 50 49 48 48 49 48 48 47 47 47 47 46 46 46 45 45 45 46 47 48 46 47 46 47 47 47 46 46 46 47 48 48 48 48 50 51 51 50 51 50 49 49 50 50 50 53 58 55 60 60 60 61 61 60 59 57 57 58 60 59 60 57 54 54 53 54 53 51 51 50 50 50 52 55 56 57 57 56 55 54 53 52 52 52
49 50 49 48 49 52 48 47 47 46 47 46 46 45 45 45 45 45 46 46 45 45 46 47 46 47 47 45 45 45 46 47 47 47 47 48 49 49 49 50 51 50 50 49 49 51 52 57 58 57 58 58 59 60 61 60 58 58 58 58 60 60 56 54 53 52 53 53 52 51 50 50 50 52 55 55 56 56 55 53 53 52 51 51 52
50 49 48 48 49 47 47 47 46 46 45 46 46 45 44 44 46 45 45 45 45 45 45 46 46 46 45 44 45 45 46 46 46 46 47 47 47 47 48 49 49 50 50 49 47 50 53 53 56 58 58 59 59 59 59 60 58 58 59 59 58 56 55 55 53 52 52 52 51 51 50 50 49 50 52 55 56 56 55 54 53 52 52 51 51
48 48 48 48 48 47 47 46 45 45 45 45 44 44 44 44 44 44 44 45 44 44 45 45 45 45 44 44 44 44 45 45 45 46 46 46 47 47 47 48 48 49 50 49 48 47 50 51 52 54 57 58 59 59 59 59 58 56 59 59 58 55 57 58 53 52 52 51 51 50 51 50 49 49 50 52 53 54 53 53 52 52 51 51 50
48 47 48 48 47 47 46 46 45 45 44 44 44 44 44 43 44 44 44 44 44 44 45 44 44 44 44 44 44 44 45 45 45 45 45 45 46 47 47 47 47 48 48 48 47 47 48 52 53 53 56 58 58 58 58 59 59 60 57 59 59 58 58 59 59 52 51 51 50 50 50 50 48 48 49 51 52 52 53 52 52 52 50 49 49
47 47 47 47 47 46 45 44 44 43 43 43 43 43 43 43 43 44 44 43 43 43 43 42 43 44 44 43 43 44 44 44 45 43 43 44 44 44 45 46 46 47 49 46 46 46 45 47 51 54 55 57 57 59 58 58 58 58 58 57 58 58 59 59 59 59 51 50 50 49 49 49 48 48 48 49 50 51 52 51 50 49 50 49 49
47 47 46 46 45 44 44 43 43 43 43 43 43 43 43 43 42 42 43 43 42 43 42 42 42 42 43 44 43 43 44 44 44 44 44 44 44 43 45 46 46 46 46 46 45 44 45 45 48 49 53 55 55 55 56 58 58 58 57 58 57 56 55 56 56 57 51 49 49 49 49 48 48 48 48 49 49 49 49 50 49 49 48 48 48
46 46 45 44 44 43 44 43 43 42 42 43 43 42 42 42 42 42 42 42 42 42 42 42 41 42 43 43 43 43 43 43 42 43 43 44 44 43 44 45 46 45 46 46 46 44 44 45 46 47 49 50 54 53 55 57 56 56 57 57 56 56 57 55 55 54 52 49 48 48 48 48 48 47 47 48 49 49 49 49 49 48 48 48 47
45 45 45 44 43 43 43 42 42 42 42 42 42 42 42 42 42 42 42 41 41 41 42 42 43 43 43 42 42 42 43 42 43 42 42 43 41 41 41 42 42 44 45 45 45 46 45 44 44 45 47 47 49 51 54 55 54 55 55 55 55 55 56 55 54 54 51 50 49 48 47 47 47 47 47 47 48 49 48 48 48 48 48 48 47
45 44 44 43 43 42 42 41 41 41 41 41 41 41 41 42 42 42 42 42 42 41 41 41 41 42 42 41 40 41 41 41 41 41 42 41 40 41 41 40 40 42 43 44 46 45 44 43 43 43 46 46 47 49 51 54 55 54 55 55 53 53 54 55 55 54 53 53 54 53 50 48 47 47 47 48 48 48 48 48 48 48 48 48 47
44 43 43 43 43 41 41 40 40 41 41 41 40 40 40 40 40 41 41 41 40 41 40 40 41 41 40 39 40 40 40 40 40 39 39 40 40 41 40 40 39 39 40 41 41 41 42 42 42 43 44 46 46 47 49 51 52 54 53 54 54 52 52 53 54 53 52 53 51 48 50 50 50 50 48 47 47 48 48 48 48 49 48 47 46
43 43 42 42 42 40 40 40 40 42 40 40 39 40 41 40 42 41 40 40 40 39 39 39 39 39 39 39 39 39 40 40 40 39 40 40 40 39 39 40 39 39 38 39 39 39 40 40 41 41 43 44 45 47 49 49 49 51 53 53 52 53 53 52 52 53 52 52 53 53 50 49 49 49 47 47 47 48 48 48 48 48 48 47 45
44 43 41 41 40 40 40 41 41 41 40 40 40 40 40 40 39 39 39 38 38 39 38 38 38 39 39 39 39 39 41 42 41 41 41 41 40 39 39 39 39 39 38 38 38 38 39 39 39 41 41 41 43 44 45 46 46 47 52 52 52 52 51 51 51 50 50 52 51 52 52 52 52 52 53 53 53 49 50 49 50 49 47 46 45
42 41 41 40 40 39 40 40 40 40 40 40 44 40 41 41 40 39 39 39 38 38 38 38 38 38 38 38 40 41 41 41 40 40 39 39 40 40 39 39 39 38 37 37 36 36 36 36 37 39 40 40 42 43 44 45 46 48 49 49 49 49 50 51 51 51 50 50 51 51 51 51 52 52 53 53 54 52 53 52 52 51 48 45 45
41 41 40 39 39 39 39 39 38 39 39 40 39 38 38 38 39 38 38 38 38 38 38 37 37 37 37 37 38 39 40 40 40 39 38 38 38 38 38 39 39 39 37 36 36 36 35 35 35 37 38 39 40 43 44 43 46 47 47 49 49 50 49 49 49 51 48 50 50 50 52 51 51 51 51 52 53 53 53 53 49 48 47 46 45
41 40 39 38 39 38 38 37 37 38 38 40 38 37 37 37 38 40 38 37 37 36 36 36 36 36 36 36 37 38 38 38 38 38 38 38 37 37 37 36 36 37 37 38 37 36 36 35 34 35 36 37 38 41 43 44 43 44 45 46 47 48 48 49 49 49 50 49 49 49 51 48 50 51 51 51 52 52 53 50 47 46 46 45 44
41 39 38 38 37 38 37 36 36 38 37 39 37 37 37 37 37 37 36 36 36 36 35 35 35 35 35 35 35 36 36 38 38 37 37 37 38 37 37 37 37 36 35 35 36 38 37 36 35 35 35 36 36 37 43 43 43 42 44 43 45 46 47 47 48 50 49 49 49 49 50 49 48 49 50 51 51 51 51 46 46 45 45 44 43
39 39 38 37 37 37 36 36 36 36 35 37 37 36 36 36 35 36 36 35 35 35 35 35 34 34 34 34 34 34 35 35 36 36 36 36 36 36 36 36 36 37 36 36 36 36 37 38 37 36 37 37 36 38 42 43 42 40 41 41 44 44 46 46 49 51 50 49 49 49 48 50 47 49 49 51 50 50 50 47 44 44 44 43 42
39 37 37 36 37 37 36 35 34 34 34 36 36 35 35 35 35 35 35 35 35 35 35 34 34 34 33 34 34 33 34 34 35 35 35 35 35 35 35 35 35 35 36 35 35 36 36 37 37 37 37 37 38 39 40 41 42 42 43 43 45 47 47 47 46 45 46 47 50 50 48 51 46 47 48 49 48 48 48 43 42 42 42 42 41
39 38 37 37 37 35 35 34 33 31 32 35 35 35 35 35 35 36 35 34 34 34 33 34 33 33 33 33 33 33 33 33 34 34 35 35 34 34 34 34 34 34 35 35 36 36 36 36 36 36 36 37 37 38 38 37 39 43 44 44 44 44 42 42 42 44 45 46 48 49 49 49 45 47 48 47 47 47 46 46 41 42 42 41 41
37 36 36 36 36 35 34 33 31 29 29 34 35 35 35 35 35 34 34 34 33 33 33 33 33 33 33 33 33 32 33 33 34 34 34 35 34 34 33 33 34 34 34 35 35 35 36 36 35 35 35 35 35 36 36 36 36 37 37 36 36 37 39 39 41 43 44 44 45 48 49 49 46 46 45 43 45 45 44 44 43 41 41 41 40
37 36 36 36 35 35 34 32 30 28 29 32 35 35 35 35 35 34 33 33 32 32 32 32 33 33 33 35 35 33 33 33 34 33 33 33 31 32 32 32 32 33 33 34 35 35 35 35 35 35 35 35 35 36 36 36 36 37 37 35 37 37 37 38 39 41 45 43 44 48 48 48 45 45 44 41 42 43 43 42 42 42 41 40 40
38 38 37 36 34 34 34 32 36 31 29 31 35 35 35 35 36 34 33 32 31 31 31 31 32 32 32 33 34 34 33 33 33 33 33 33 31 31 31 31 30 30 31 33 33 33 34 34 34 34 35 35 35 36 37 37 37 38 37 37 38 37 36 37 38 42 44 44 43 48 46 46 44 45 42 42 41 42 41 41 41 41 42 41 41